User: anonymous   Login
Location: Battery Park City
(40.7115°N, 74.0163°W)
Time: 11:30:01
(UTC+00:00)
Language:

CENTAUR R/B - Orbit

View from above orbital plane
View from above orbital plane
View from above satellite
View from above satellite

Ground track
Ground track

The orbit data is extracted from the following two-line orbital elements,

1 26906U 01040B   20050.74664172 0.00000060  00000-0  57941-4 0    01
2 26906  63.4532 345.4331 0438754 339.8876  20.1123 13.44056912    00
Epoch (UTC): 19 February 2020 17:55:09
Eccentricity: 0.0438754
inclination: 63.4532°
perigee height: 766 km
apogee height: 1422 km
right ascension of ascending node: 345.4331°
argument of perigee: 339.8876°
revolutions per day: 13.44056912
mean anomaly at epoch: 20.1123°
orbit number at epoch: 0

The dashed part of the orbit path shows where the satellite is in the earth's shadow,  

DLR